Beaufort, SC

3:41 PM EDT on July 28, 2016 (GMT -0400)
Beaufort Marine Corps Air Station

Weather History for KNBC - April, 2014

Change the Weather History Date:

Sunday, April 20, 2014

  Actual Average Record
Temperature  
Mean Temperature 62 °F -  
Max Temperature 70 °F 77 °F 92 °F (1968)
Min Temperature 53 °F 55 °F 33 °F (1983)
Degree Days  
Heating Degree Days 4    
Growing Degree Days 12 (Base 50)    
Moisture  
Dew Point 51 °F    
Average Humidity 78    
Maximum Humidity 94    
Minimum Humidity 53    
Precipitation  
Precipitation 0.08 in - - ()
Sea Level Pressure  
Sea Level Pressure 30.09 in    
Wind  
Wind Speed 14 mph (NE)    
Max Wind Speed 20 mph    
Max Gust Speed 26 mph    
Visibility 8 miles    
Events Rain    
Averages and records for this station are not official NWS values.
T = Trace of Precipitation, MM = Missing Value Source: NWS Daily Summary

Daily Weather History Graph

Daily Weather History Graph

Search for Another Location

Airport or City:

Trip Planner

Search our weather history database for the weather conditions in past years. The results will help you decide how hot, cold, wet, or windy it might be!

Date:

Astronomy

Apr. 20, 2014 Rise Set
Actual Time 6:47 AM EDT 7:56 PM EDT
Civil Twilight 6:22 AM EDT 8:21 PM EDT
Nautical Twilight 5:52 AM EDT 8:52 PM EDT
Astronomical Twilight 5:20 AM EDT 9:23 PM EDT
Moon 12:27 AM EDT (4/20) 11:13 AM EDT (4/20)
Length of Visible Light 13h 59m
Length of Day
13h 08m
Waning Gibbous, 69% of the Moon is Illuminated
Apr 20
Waning Gibbous
Apr 22
Last Quarter
Apr 29
New
May 6
First Quarter
May 14
Full

Hourly Weather History & Observations

Time (EDT) Temp. Dew Point Humidity Pressure Visibility Wind Dir Wind Speed Gust Speed Precip Events Conditions
12:05 AM 54.0 °F 51.1 °F 90% 30.07 in 4.0 mi ENE 17.3 mph - 0.00 in Rain Light Rain
12:14 AM 54.0 °F 52.0 °F 93% 30.07 in 3.0 mi ENE 13.8 mph - 0.00 in Rain Light Rain
12:21 AM 54.0 °F 52.0 °F 93% 30.06 in 3.0 mi ENE 13.8 mph - 0.01 in Rain Light Rain
12:54 AM 53.6 °F 51.8 °F 94% 30.03 in 8.0 mi ENE 15.0 mph - 0.02 in Rain Light Rain
12:56 AM 54.0 °F 51.1 °F 90% 30.04 in 10.0 mi ENE 15.0 mph - 0.02 in Rain Light Rain
1:43 AM 54.0 °F 51.1 °F 90% 30.06 in 10.0 mi ENE 13.8 mph - 0.00 in   Overcast
1:56 AM 54.0 °F 50.0 °F 86% 30.06 in 10.0 mi ENE 15.0 mph 24.2 mph 0.00 in   Overcast
2:56 AM 54.0 °F 51.1 °F 90% 30.04 in 10.0 mi NE 13.8 mph - 0.00 in   Overcast
3:16 AM 54.0 °F 51.1 °F 90% 30.04 in 9.0 mi NE 12.7 mph - N/A   Overcast
3:56 AM 54.0 °F 51.1 °F 90% 30.05 in 10.0 mi NE 12.7 mph - N/A   Overcast
4:56 AM 54.0 °F 50.0 °F 86% 30.05 in 10.0 mi NE 12.7 mph - N/A   Overcast
5:20 AM 54.0 °F 50.0 °F 86% 30.05 in 10.0 mi NE 10.4 mph - N/A   Overcast
5:56 AM 54.0 °F 50.0 °F 86% 30.06 in 10.0 mi NE 12.7 mph - N/A   Overcast
6:56 AM 53.1 °F 48.9 °F 86% 30.08 in 10.0 mi ENE 13.8 mph - N/A   Overcast
7:56 AM 54.0 °F 50.0 °F 86% 30.09 in 10.0 mi ENE 10.4 mph - N/A   Overcast
8:56 AM 54.0 °F 50.0 °F 86% 30.10 in 9.0 mi NE 11.5 mph - 0.00 in Rain Light Rain
9:56 AM 55.0 °F 51.1 °F 86% 30.12 in 8.0 mi NE 11.5 mph - 0.00 in   Overcast
10:38 AM 55.0 °F 51.1 °F 86% 30.14 in 1.8 mi NNE 6.9 mph - 0.01 in Rain Light Rain
10:56 AM 55.0 °F 52.0 °F 89% 30.15 in 1.8 mi North 9.2 mph - 0.03 in Rain Rain
11:07 AM 55.0 °F 52.0 °F 89% 30.15 in 2.5 mi North 9.2 mph - 0.01 in Rain Light Rain
11:24 AM 55.0 °F 52.0 °F 89% 30.15 in 2.5 mi NNE 9.2 mph - 0.03 in Rain Light Rain
11:31 AM 55.9 °F 53.1 °F 90% 30.14 in 4.0 mi NNE 9.2 mph - 0.03 in Rain Light Rain
11:54 AM 57.2 °F 53.6 °F 88% 30.13 in 10.0 mi NE 15.0 mph - 0.03 in   Overcast
11:56 AM 59.0 °F 53.1 °F 81% 30.14 in 10.0 mi NE 13.8 mph - 0.03 in   Overcast
12:43 PM 61.0 °F 50.0 °F 67% 30.12 in 10.0 mi NE 12.7 mph - N/A   Overcast
12:56 PM 63.0 °F 51.1 °F 65% 30.12 in 10.0 mi NNE 11.5 mph - N/A   Overcast
1:56 PM 66.9 °F 53.1 °F 61% 30.11 in 10.0 mi NE 18.4 mph 25.3 mph N/A   Mostly Cloudy
2:56 PM 68.0 °F 52.0 °F 56% 30.09 in 10.0 mi NE 13.8 mph - N/A   Overcast
3:56 PM 70.0 °F 52.0 °F 53% 30.08 in 10.0 mi ENE 19.6 mph 26.5 mph N/A   Mostly Cloudy
4:56 PM 68.0 °F 51.1 °F 55% 30.09 in 10.0 mi ENE 16.1 mph - N/A   Overcast
5:56 PM 66.0 °F 51.1 °F 59% 30.10 in 10.0 mi ENE 15.0 mph 23.0 mph N/A   Overcast
6:56 PM 66.0 °F 51.1 °F 59% 30.10 in 10.0 mi NE 11.5 mph - N/A   Overcast
7:56 PM 64.9 °F 50.0 °F 58% 30.11 in 10.0 mi NE 12.7 mph 19.6 mph N/A   Overcast
8:56 PM 64.0 °F 50.0 °F 60% 30.12 in 10.0 mi NE 8.1 mph - N/A   Overcast
9:56 PM 64.0 °F 50.0 °F 60% 30.13 in 10.0 mi NNE 6.9 mph - N/A   Overcast
10:56 PM 63.0 °F 48.0 °F 58% 30.12 in 10.0 mi NE 13.8 mph - N/A   Overcast
11:56 PM 63.0 °F 48.0 °F 58% 30.11 in 10.0 mi ENE 12.7 mph - N/A   Overcast